Weather reports worldwide

Advertisment
Logan Botanic Garden, United Kingdom (99193): temperature & dewpoint: 19.05.2018 04:00:00 - 25.05.2018 04:00:00 (BST)Logan Botanic Garden, United Kingdom (99193): temperature -20cm: 19.05.2018 04:00:00 - 25.05.2018 04:00:00 (BST)Logan Botanic Garden, United Kingdom (99193): precipitation: 19.05.2018 04:00:00 - 25.05.2018 04:00:00 (BST)
Date & Time tt [°C] td [°C] tt -20cm [°C] rr [mm]
25.05.2018 04:00:00 13,0 8,4 - 0,0
25.05.2018 03:00:00 12,7 8,8 - 0,0
25.05.2018 02:00:00 13,0 9,5 - 0,0
25.05.2018 01:00:00 13,6 9,7 - 0,0
25.05.2018 00:00:00 14,4 10,3 - 0,0
24.05.2018 23:00:00 15,5 10,4 - 0,0
24.05.2018 22:00:00 15,8 9,9 - 0,0
24.05.2018 21:00:00 17,8 10,2 - 0,0
24.05.2018 20:00:00 18,8 11,0 - 0,0
24.05.2018 19:00:00 21,0 11,3 - 0,0
24.05.2018 18:00:00 18,7 10,9 - 0,0
24.05.2018 17:00:00 19,0 10,9 - 0,0
24.05.2018 16:00:00 19,1 10,6 - 0,0
24.05.2018 15:00:00 17,4 9,9 - 0,0
24.05.2018 14:00:00 18,6 11,0 - 0,0
24.05.2018 13:00:00 18,2 11,2 - 0,0
24.05.2018 12:00:00 17,4 10,6 - 0,0
24.05.2018 11:00:00 16,0 9,5 - 0,0
24.05.2018 10:00:00 15,1 10,2 12,9 0,0
24.05.2018 09:00:00 13,3 9,6 - 0,0
24.05.2018 08:00:00 11,6 9,1 - 0,0
24.05.2018 07:00:00 10,3 8,6 - 0,0
24.05.2018 06:00:00 9,4 8,3 - 0,0
24.05.2018 05:00:00 9,6 8,3 - 0,0
24.05.2018 04:00:00 10,2 8,6 - 0,0
24.05.2018 03:00:00 10,6 8,8 - 0,0
24.05.2018 02:00:00 11,0 9,0 - 0,0
24.05.2018 01:00:00 11,3 9,9 - 0,0
24.05.2018 00:00:00 9,7 8,5 - 0,0
23.05.2018 23:00:00 10,0 8,5 - 0,0
23.05.2018 22:00:00 11,0 8,2 - 0,0
23.05.2018 21:00:00 12,6 9,2 - 0,0
23.05.2018 20:00:00 14,0 9,3 - 0,0
23.05.2018 19:00:00 15,9 8,8 - 0,0
23.05.2018 18:00:00 16,6 10,0 - 0,0
23.05.2018 17:00:00 16,0 9,8 - 0,0
23.05.2018 16:00:00 15,1 9,7 - 0,0
23.05.2018 15:00:00 14,8 10,1 - 0,0
23.05.2018 14:00:00 14,0 9,3 - 0,0
23.05.2018 13:00:00 13,6 8,9 - 0,0
23.05.2018 12:00:00 13,4 8,3 - 0,0
23.05.2018 11:00:00 12,9 8,0 - 0,0
23.05.2018 10:00:00 11,9 8,4 12,5 0,0
23.05.2018 09:00:00 10,5 7,9 - 0,0
23.05.2018 08:00:00 10,0 7,9 - 0,0
23.05.2018 07:00:00 8,3 7,8 - 0,0
23.05.2018 06:00:00 6,4 5,8 - 0,0
23.05.2018 05:00:00 6,9 6,1 - 0,0
23.05.2018 04:00:00 7,1 6,1 - 0,0
23.05.2018 03:00:00 7,8 6,6 - 0,0
23.05.2018 02:00:00 8,7 7,2 - 0,0
23.05.2018 01:00:00 9,3 7,6 - 0,0
23.05.2018 00:00:00 9,8 7,9 - 0,0
22.05.2018 23:00:00 8,3 7,2 - 0,0
22.05.2018 22:00:00 8,9 7,4 - 0,0
22.05.2018 21:00:00 9,8 8,0 - 0,0
22.05.2018 20:00:00 10,8 8,4 - 0,0
22.05.2018 19:00:00 13,5 9,4 - 0,0
22.05.2018 18:00:00 13,1 8,8 - 0,0
22.05.2018 17:00:00 14,5 9,0 - 0,0
22.05.2018 16:00:00 14,2 9,4 - 0,0
22.05.2018 15:00:00 13,9 8,7 - 0,0
22.05.2018 14:00:00 15,0 10,0 - 0,0
22.05.2018 13:00:00 14,1 8,9 - 0,0
22.05.2018 12:00:00 13,5 9,0 - 0,0
22.05.2018 11:00:00 13,0 8,7 - 0,0
22.05.2018 10:00:00 13,0 8,7 12,0 0,0
22.05.2018 09:00:00 12,5 8,9 - 0,0
22.05.2018 08:00:00 11,6 8,8 - 0,0
22.05.2018 07:00:00 10,1 8,7 - 0,0
22.05.2018 06:00:00 8,8 7,8 - 0,0
22.05.2018 05:00:00 8,7 7,2 - 0,0
22.05.2018 04:00:00 8,8 7,2 - 0,0
22.05.2018 03:00:00 8,7 7,1 - 0,0
22.05.2018 02:00:00 8,5 6,8 - 0,0
22.05.2018 01:00:00 8,6 7,1 - 0,0
22.05.2018 00:00:00 8,6 7,1 - 0,0
21.05.2018 23:00:00 8,4 7,1 - 0,0
21.05.2018 22:00:00 8,4 6,8 - 0,0
21.05.2018 21:00:00 8,8 6,7 - 0,0
21.05.2018 20:00:00 9,5 6,6 - 0,0
21.05.2018 19:00:00 10,2 7,0 - 0,0
21.05.2018 18:00:00 10,4 7,2 - 0,0
21.05.2018 17:00:00 11,3 8,1 - 0,0
21.05.2018 16:00:00 11,2 8,0 - 0,0
21.05.2018 15:00:00 11,4 8,1 - 0,0
21.05.2018 14:00:00 10,7 8,1 - 0,0
21.05.2018 13:00:00 12,2 8,5 - 0,0
21.05.2018 12:00:00 12,3 7,8 - 0,0
21.05.2018 11:00:00 13,2 7,3 - 0,0
21.05.2018 10:00:00 13,2 7,4 12,0 0,0
21.05.2018 09:00:00 12,6 6,9 - 0,0
21.05.2018 08:00:00 12,3 7,0 - 0,0
21.05.2018 07:00:00 11,4 7,4 - 0,0
21.05.2018 06:00:00 11,1 7,6 - 0,0
21.05.2018 05:00:00 10,7 7,7 - 0,0
21.05.2018 04:00:00 11,0 7,3 - 0,0
21.05.2018 03:00:00 10,7 7,8 - 0,0
21.05.2018 02:00:00 10,8 7,9 - 0,0
21.05.2018 01:00:00 11,3 7,2 - 0,0
21.05.2018 00:00:00 10,9 7,8 - 0,0
20.05.2018 23:00:00 11,3 7,8 - 0,0
20.05.2018 22:00:00 12,6 8,0 - 0,0
20.05.2018 21:00:00 12,1 8,0 - 0,0
20.05.2018 20:00:00 11,5 6,9 - 0,0
20.05.2018 19:00:00 13,3 5,2 - 0,0
20.05.2018 18:00:00 12,2 6,9 - 0,0
20.05.2018 17:00:00 12,5 7,1 - 0,0
20.05.2018 16:00:00 12,1 8,0 - 0,0
20.05.2018 15:00:00 12,1 7,9 - 0,0
20.05.2018 14:00:00 12,6 7,9 - 0,0
20.05.2018 13:00:00 12,9 8,7 - 0,0
20.05.2018 12:00:00 12,4 8,9 - 0,0
20.05.2018 11:00:00 11,6 8,7 - 0,0
20.05.2018 10:00:00 11,3 8,3 12,2 0,0
20.05.2018 09:00:00 11,6 8,5 - 0,0
20.05.2018 08:00:00 11,2 8,4 - 0,0
20.05.2018 07:00:00 10,7 8,4 - 0,2
20.05.2018 06:00:00 10,7 8,3 - 0,0
20.05.2018 05:00:00 10,9 7,9 - 0,0
20.05.2018 04:00:00 11,0 7,5 - 0,0
20.05.2018 03:00:00 11,3 6,8 - 0,0
20.05.2018 02:00:00 11,8 6,0 - 0,0
20.05.2018 01:00:00 12,2 6,3 - 0,0
20.05.2018 00:00:00 12,5 6,8 - 0,0
19.05.2018 23:00:00 12,4 7,2 - 0,0
19.05.2018 22:00:00 12,1 7,4 - 0,0
19.05.2018 21:00:00 12,2 6,7 - 0,0
19.05.2018 20:00:00 12,4 6,7 - 0,0
19.05.2018 19:00:00 12,1 6,6 - 0,0
19.05.2018 18:00:00 12,5 7,2 - 0,0
19.05.2018 17:00:00 12,5 6,5 - 0,0
19.05.2018 16:00:00 12,8 7,7 - 0,0
19.05.2018 15:00:00 12,7 9,1 - 0,0
19.05.2018 14:00:00 12,5 9,0 - 0,0
19.05.2018 13:00:00 13,1 9,1 - 0,0
19.05.2018 12:00:00 13,1 8,3 - 0,0
19.05.2018 11:00:00 13,7 6,8 - 0,0
19.05.2018 10:00:00 13,4 8,6 12,0 0,0
19.05.2018 09:00:00 12,2 6,6 - 0,0
19.05.2018 08:00:00 11,1 8,4 - 0,0
19.05.2018 07:00:00 9,9 8,4 - 0,0
19.05.2018 06:00:00 8,1 6,2 - 0,0
19.05.2018 05:00:00 7,8 6,7 - 0,0
19.05.2018 04:00:00 6,0 5,3 - 0,0

tt = temperature
td = dewpoint
tt -20cm = temperature -20cm
rr = precipitation

Next stations